When you browse on this site, cookies collect data to enhance your experience and personalize the content and advertising you see.
Visit our Privacy Policy to learn more. By continuing to use the site, you agree to this use of cookies and data.
  • In Romania
  • List of Countries
  • For 7 days
  • Water Temperature
  • Weather Map
  • Weather Widgets
  • user-avatar
    Login

    Hourly Weather Valladolid

    Today, 29 May, Friday

    Time Temperature Precipitation Wind Pressure Humidity
    00:00 +18°C° 0 mm 2 mps 703 mmHg 59%
    01:00 +18°C° 0 mm 1 mps 703 mmHg 60%
    02:00 +18°C° 0 mm 1 mps 703 mmHg 61%
    03:00 +16°C° 0 mm 1 mps 703 mmHg 62%
    04:00 +16°C° 0 mm 1 mps 703 mmHg 63%
    05:00 +18°C° 0 mm 1 mps 703 mmHg 64%
    06:00 +19°C° 0 mm 1 mps 703 mmHg 65%
    07:00 +21°C° 0 mm 1 mps 703 mmHg 59%
    08:00 +23°C° 0 mm 1 mps 703 mmHg 52%
    09:00 +25°C° 0 mm 1 mps 703 mmHg 45%
    10:00 +26°C° 0 mm 1 mps 703 mmHg 43%
    11:00 +28°C° 0 mm 1 mps 703 mmHg 40%
    12:00 +29°C° 0 mm 2 mps 703 mmHg 37%
    13:00 +29°C° 0 mm 2 mps 703 mmHg 34%
    14:00 +30°C° 0 mm 2 mps 702 mmHg 32%
    15:00 +30°C° 0 mm 3 mps 702 mmHg 30%
    16:00 +29°C° 0 mm 3 mps 701 mmHg 34%
    17:00 +28°C° 0 mm 3 mps 701 mmHg 37%
    18:00 +28°C° 0 mm 3 mps 701 mmHg 41%
    19:00 +25°C° 0 mm 3 mps 701 mmHg 46%
    20:00 +22°C° 0 mm 3 mps 701 mmHg 51%
    21:00 +20°C° 0 mm 4 mps 701 mmHg 56%
    22:00 +19°C° 0 mm 3 mps 701 mmHg 56%
    23:00 +18°C° 0 mm 3 mps 700 mmHg 57%

    Tomorrow, 30 May, Saturday

    Time Temperature Precipitation Wind Pressure Humidity
    00:00 +17°C° 0 mm 3 mps 700 mmHg 58%
    01:00 +16°C° 0 mm 2 mps 700 mmHg 58%
    02:00 +15°C° 0 mm 2 mps 700 mmHg 59%
    03:00 +15°C° 0 mm 2 mps 700 mmHg 60%
    04:00 +15°C° 0 mm 2 mps 700 mmHg 62%
    05:00 +15°C° 0 mm 2 mps 700 mmHg 65%
    06:00 +16°C° 0 mm 2 mps 700 mmHg 68%
    07:00 +18°C° 0 mm 2 mps 700 mmHg 60%
    08:00 +22°C° 0 mm 1 mps 700 mmHg 53%
    09:00 +24°C° 0 mm 1 mps 701 mmHg 46%
    10:00 +26°C° 0 mm 1 mps 701 mmHg 42%
    11:00 +28°C° 0 mm 1 mps 701 mmHg 37%
    12:00 +30°C° 0 mm 1 mps 701 mmHg 32%
    13:00 +30°C° 0 mm 1 mps 700 mmHg 31%
    14:00 +31°C° 0 mm 1 mps 700 mmHg 29%
    15:00 +31°C° 0 mm 1 mps 700 mmHg 27%
    16:00 +30°C° 0 mm 1 mps 700 mmHg 31%
    17:00 +30°C° 0 mm 1 mps 699 mmHg 35%
    18:00 +29°C° 0 mm 2 mps 699 mmHg 39%
    19:00 +27°C° 0 mm 2 mps 699 mmHg 44%
    20:00 +25°C° 0 mm 2 mps 699 mmHg 49%
    21:00 +22°C° 0 mm 3 mps 699 mmHg 55%
    22:00 +21°C° 0 mm 2 mps 699 mmHg 58%
    23:00 +20°C° 0 mm 2 mps 699 mmHg 61%

    Day after tomorrow, 31 May, Sunday

    Time Temperature Precipitation Wind Pressure Humidity
    00:00 +21°C° 0 mm 1 mps 699 mmHg 64%
    01:00 +20°C° 0 mm 1 mps 699 mmHg 66%
    02:00 +19°C° 0 mm 1 mps 698 mmHg 67%
    03:00 +19°C° 0 mm 1 mps 698 mmHg 69%
    04:00 +19°C° 0 mm 1 mps 698 mmHg 70%
    05:00 +20°C° 0 mm 1 mps 698 mmHg 70%
    06:00 +20°C° 0 mm 1 mps 698 mmHg 70%
    07:00 +22°C° 0 mm 1 mps 699 mmHg 62%
    08:00 +24°C° 0 mm 1 mps 699 mmHg 54%
    09:00 +26°C° 0 mm 1 mps 700 mmHg 46%
    10:00 +27°C° 0 mm 1 mps 700 mmHg 42%
    11:00 +28°C° 0 mm 1 mps 700 mmHg 37%
    12:00 +30°C° 0 mm 1 mps 700 mmHg 33%
    13:00 +28°C° 0.1 mm 2 mps 699 mmHg 37%
    14:00 +27°C° 0.1 mm 4 mps 699 mmHg 41%
    15:00 +26°C° 0.1 mm 6 mps 698 mmHg 45%
    16:00 +23°C° 0.4 mm 5 mps 698 mmHg 50%
    17:00 +22°C° 0.4 mm 3 mps 698 mmHg 55%
    18:00 +21°C° 0.4 mm 2 mps 698 mmHg 60%
    19:00 +20°C° 0.2 mm 3 mps 699 mmHg 68%
    20:00 +18°C° 0.2 mm 4 mps 700 mmHg 75%
    21:00 +16°C° 0.2 mm 5 mps 700 mmHg 82%
    22:00 +17°C° 0.1 mm 4 mps 700 mmHg 84%
    23:00 +17°C° 0.1 mm 2 mps 700 mmHg 85%

    1 June, Monday

    Time Temperature Precipitation Wind Pressure Humidity
    00:00 +16°C° 0.1 mm 1 mps 700 mmHg 86%
    01:00 +16°C° 0 mm 1 mps 700 mmHg 86%
    02:00 +16°C° 0 mm 1 mps 700 mmHg 86%
    03:00 +16°C° 0 mm 1 mps 700 mmHg 86%
    04:00 +16°C° 0 mm 1 mps 700 mmHg 85%
    05:00 +16°C° 0 mm 1 mps 700 mmHg 83%
    06:00 +18°C° 0 mm 1 mps 700 mmHg 82%
    07:00 +20°C° 0 mm 1 mps 701 mmHg 74%
    08:00 +21°C° 0 mm 1 mps 701 mmHg 67%
    09:00 +23°C° 0 mm 1 mps 702 mmHg 59%
    10:00 +25°C° 0 mm 1 mps 702 mmHg 53%
    11:00 +27°C° 0 mm 1 mps 702 mmHg 46%
    12:00 +29°C° 0 mm 1 mps 702 mmHg 39%
    13:00 +29°C° 0 mm 1 mps 702 mmHg 37%
    14:00 +29°C° 0 mm 2 mps 702 mmHg 35%
    15:00 +30°C° 0 mm 2 mps 702 mmHg 33%
    16:00 +29°C° 0 mm 2 mps 702 mmHg 36%
    17:00 +29°C° 0 mm 2 mps 701 mmHg 38%
    18:00 +29°C° 0 mm 2 mps 701 mmHg 41%
    19:00 +27°C° 0.1 mm 2 mps 701 mmHg 45%
    20:00 +25°C° 0.1 mm 2 mps 701 mmHg 49%
    21:00 +23°C° 0.1 mm 1 mps 701 mmHg 54%
    22:00 +21°C° 0.2 mm 2 mps 701 mmHg 59%
    23:00 +20°C° 0.2 mm 2 mps 701 mmHg 64%

    2 June, Tuesday

    Time Temperature Precipitation Wind Pressure Humidity
    00:00 +19°C° 0.2 mm 2 mps 701 mmHg 70%
    01:00 +18°C° 0 mm 2 mps 701 mmHg 72%
    02:00 +18°C° 0 mm 2 mps 700 mmHg 75%
    03:00 +17°C° 0 mm 2 mps 700 mmHg 78%
    04:00 +17°C° 0 mm 2 mps 700 mmHg 77%
    05:00 +18°C° 0 mm 2 mps 700 mmHg 77%
    06:00 +18°C° 0 mm 2 mps 700 mmHg 77%
    07:00 +20°C° 0 mm 2 mps 701 mmHg 70%
    08:00 +23°C° 0 mm 2 mps 701 mmHg 63%
    09:00 +24°C° 0 mm 2 mps 701 mmHg 56%
    10:00 +26°C° 0 mm 2 mps 701 mmHg 51%
    11:00 +27°C° 0 mm 2 mps 701 mmHg 45%
    12:00 +28°C° 0 mm 3 mps 701 mmHg 40%
    13:00 +29°C° 0 mm 3 mps 700 mmHg 36%
    14:00 +30°C° 0 mm 3 mps 700 mmHg 33%
    15:00 +30°C° 0 mm 3 mps 700 mmHg 29%
    16:00 +29°C° 0 mm 3 mps 699 mmHg 32%
    17:00 +29°C° 0 mm 3 mps 699 mmHg 35%
    18:00 +28°C° 0 mm 3 mps 698 mmHg 38%
    19:00 +26°C° 0 mm 3 mps 698 mmHg 45%
    20:00 +22°C° 0 mm 3 mps 698 mmHg 53%
    21:00 +20°C° 0 mm 3 mps 698 mmHg 60%
    22:00 +19°C° 0 mm 2 mps 698 mmHg 65%
    23:00 +18°C° 0 mm 2 mps 697 mmHg 70%

    3 June, Wednesday

    Time Temperature Precipitation Wind Pressure Humidity
    00:00 +18°C° 0 mm 1 mps 697 mmHg 75%
    01:00 +18°C° 0 mm 1 mps 696 mmHg 77%
    02:00 +16°C° 0 mm 1 mps 696 mmHg 79%
    03:00 +16°C° 0 mm 2 mps 695 mmHg 81%
    04:00 +16°C° 0 mm 2 mps 695 mmHg 82%
    05:00 +16°C° 0 mm 2 mps 695 mmHg 83%
    06:00 +16°C° 0 mm 2 mps 695 mmHg 83%
    07:00 +18°C° 0 mm 2 mps 695 mmHg 76%
    08:00 +20°C° 0 mm 3 mps 695 mmHg 68%
    09:00 +22°C° 0 mm 3 mps 695 mmHg 60%
    10:00 +23°C° 0.1 mm 4 mps 695 mmHg 54%
    11:00 +26°C° 0.1 mm 5 mps 695 mmHg 48%
    12:00 +27°C° 0.1 mm 6 mps 694 mmHg 42%
    13:00 +27°C° 0 mm 7 mps 694 mmHg 41%
    14:00 +27°C° 0 mm 7 mps 693 mmHg 40%
    15:00 +27°C° 0 mm 8 mps 693 mmHg 39%
    16:00 +24°C° 0.6 mm 7 mps 692 mmHg 49%
    17:00 +22°C° 0.6 mm 7 mps 692 mmHg 59%
    18:00 +20°C° 0.6 mm 7 mps 691 mmHg 69%
    19:00 +17°C° 1.8 mm 5 mps 691 mmHg 76%
    20:00 +15°C° 1.8 mm 4 mps 691 mmHg 83%
    21:00 +13°C° 1.8 mm 3 mps 691 mmHg 90%
    22:00 +13°C° 0.9 mm 3 mps 691 mmHg 90%
    23:00 +14°C° 0.9 mm 2 mps 691 mmHg 90%
    Show more